Zurück zum Katalog

SL-3 R/B

AktivPO
NORAD 12646·ROCKET BODY·🇷🇺 Russia

Gestartet Aug 7, 1981 von Plesetsk Cosmodrome

Loading…

Nächste Überflüge (nächste 24 Stunden)

TLE

AktuellSource: Space-Track

Epoche: Sep 14, 2026, 07:49 UTC

1 12646U 81075B   26257.32614027  .00000034  00000-0  10067-4 0  9992
2 12646  81.2285 185.9931 0068091  66.1023  85.6444 14.16436910329320

Verfolge SL-3 R/B in Echtzeit mit AllMySat

Download on the App Store